Flag for U.S.A. Weather past 2 weeks in Lakewood, Colorado, U.S.A.

Now
32 °F

Partly sunny.


Feels Like: 26 °F
Forecast: 26 / 41 °F
Wind: 7 mph from West

Location: Centennial Airport

Current Time: Dec 22, 2014 at 11:03:09 AM

Latest Report: Dec 22, 2014 at 9:53 AM


Visibility: 10 mi

Pressure: 29.75 "Hg

Humidity: 75%

Dew point: 25 °F

Location of LakewoodLocation

Historic Weather in Lakewood — Graph

°F

Lakewood temperature yesterday

Maximum temperature yesterday: 49 °F (at 12:53 PM)
Minimum temperature yesterday: 26 °F (at 12:53 AM)
Average temperature yesterday: 38 °F

Past Weeks' High & Low Weather Summary

 TemperatureHumidityPressure
High67 °F (Dec 12, 1:53 PM)100% (Dec 14, 9:53 AM)30.42 "Hg (Dec 14, 9:53 AM)
Low19 °F (Dec 16, 2:53 AM)9% (Dec 12, 12:53 PM)29.56 "Hg (Dec 21, 2:53 PM)
Average36 °F56%30.04 "Hg
* Reported Dec 7 9:53 AM — Dec 22 9:53 AM, Lakewood, Weather by CustomWeather, © 2014

Note: Actual official high and low records may vary slightly from our data, if they occured in-between our weather recording intervals... More about our weather records

Advertising

Lakewood weather history for previous 24 hours

 ConditionsComfort  
Time TempWeatherWind HumidityBarometerVisibility
9:53 AM
Dec 22
32 °FPartly sunny.7 mph75%29.75 "Hg10 mi
8:53 AM31 °FPartly sunny.6 mph82%29.75 "Hg10 mi
7:53 AM28 °FPartly sunny.5 mph89%29.77 "Hg10 mi
6:53 AM25 °FPassing clouds.6 mph96%29.80 "Hg10 mi
5:53 AM26 °FPassing clouds.3 mph92%29.77 "Hg10 mi
4:53 AM31 °FMostly cloudy.No wind89%29.76 "Hg10 mi
3:53 AM28 °FPassing clouds.No wind96%29.75 "Hg10 mi
2:53 AM32 °FMostly cloudy.3 mph92%29.72 "Hg9 mi
2:02 AM32 °FLight snow. Ice fog.7 mph96%29.72 "Hg4 mi
1:53 AM32 °FLight snow. Ice fog.9 mph96%29.71 "Hg3 mi
1:02 AM32 °FLight snow. Ice fog.10 mph96%29.71 "Hg1 mi
12:53 AM32 °FSnow. Fog.8 mph96%29.69 "Hg1 mi
11:53 PM
Dec 21
32 °FLight snow. Ice fog.6 mph96%29.70 "Hg3 mi
11:02 PM32 °FLight snow. Ice fog.15 mph96%29.71 "Hg1 mi
9:53 PM37 °FLight rain. Fog.16 mph93%29.65 "Hg4 mi
9:03 PM39 °FLight rain. Overcast.12 mph82%29.62 "Hg9 mi
7:53 PM42 °FLight rain. Mostly cloudy.9 mph65%29.61 "Hg10 mi
6:53 PM40 °FPartly cloudy.6 mph60%29.60 "Hg10 mi
5:53 PM45 °FPartly cloudy.No wind45%29.59 "Hg10 mi
4:53 PM40 °FPartly cloudy.7 mph58%29.60 "Hg10 mi
3:53 PM44 °FBroken clouds.No wind49%29.58 "Hg10 mi
2:53 PM46 °FBroken clouds.5 mph44%29.56 "Hg10 mi
1:53 PM47 °FBroken clouds.10 mph41%29.56 "Hg10 mi
12:53 PM49 °FPartly sunny.13 mph35%29.59 "Hg10 mi
11:53 AM45 °FPartly sunny.7 mph37%29.62 "Hg10 mi
Weather by CustomWeather, © 2014

See weather overviewHow to use our weather pages